| time (UTC) | temp C | wind direction | speed KPH | gust KPH | rain 1hr cm | rain 24hr cm | rain mn cm | humidity % | barometer mb |
| 20260503232717 | 12 | 227 | 45.1 | 48.3 | 0.00 | 0.00 | 0.00 | 58 | 1010.6 |
| 20260503232214 | 12 | 212 | 43.5 | 48.3 | 0.00 | 0.00 | 0.00 | 57 | 1010.6 |
| 20260503231713 | 13 | 216 | 37.0 | 43.5 | 0.00 | 0.00 | 0.00 | 56 | 1010.6 |
| 20260503231209 | 13 | 227 | 33.8 | 37.0 | 0.00 | 0.00 | 0.00 | 53 | 1010.4 |
| 20260503230705 | 13 | 238 | 45.1 | 49.9 | 0.00 | 0.00 | 0.00 | 52 | 1010.3 |
| 20260503230203 | 14 | 226 | 41.8 | 46.7 | 0.00 | 0.00 | 0.00 | 51 | 1010.2 |
| 20260503225659 | 15 | 244 | 40.2 | 41.8 | 0.00 | 0.00 | 0.00 | 49 | 1010.1 |
| 20260503225154 | 15 | 224 | 43.5 | 48.3 | 0.00 | 0.00 | 0.00 | 48 | 1010.3 |
| 20260503224652 | 15 | 234 | 43.5 | 48.3 | 0.00 | 0.00 | 0.00 | 47 | 1010.3 |
| 20260503224149 | 15 | 219 | 37.0 | 40.2 | 0.00 | 0.00 | 0.00 | 44 | 1010.2 |
| 20260503223647 | 16 | 208 | 37.0 | 40.2 | 0.00 | 0.00 | 0.00 | 37 | 1010.1 |
| 20260503223143 | 15 | 228 | 40.2 | 43.5 | 0.00 | 0.00 | 0.00 | 36 | 1010.1 |
| 20260503222641 | 15 | 217 | 38.6 | 43.5 | 0.00 | 0.00 | 0.00 | 37 | 1010.3 |
| 20260503222138 | 15 | 239 | 37.0 | 38.6 | 0.00 | 0.00 | 0.00 | 38 | 1010.3 |
| 20260503221637 | 16 | 230 | 54.7 | 61.2 | 0.00 | 0.00 | 0.00 | 36 | 1010.0 |
| 20260503221134 | 16 | 221 | 43.5 | 46.7 | 0.00 | 0.00 | 0.00 | 36 | 1010.3 |
| 20260503220630 | 16 | 230 | 43.5 | 49.9 | 0.00 | 0.00 | 0.00 | 36 | 1010.1 |
| 20260503220127 | 16 | 216 | 27.4 | 32.2 | 0.00 | 0.00 | 0.00 | 38 | 1010.1 |
| 20260503215624 | 16 | 225 | 32.2 | 37.0 | 0.00 | 0.00 | 0.00 | 38 | 1010.3 |
| 20260503215120 | 16 | 231 | 45.1 | 49.9 | 0.00 | 0.00 | 0.00 | 36 | 1010.1 |
| 20260503214619 | 16 | 224 | 37.0 | 41.8 | 0.00 | 0.00 | 0.00 | 37 | 1010.2 |
| 20260503214114 | 17 | 235 | 41.8 | 48.3 | 0.00 | 0.00 | 0.00 | 35 | 1010.3 |
| 20260503213609 | 16 | 222 | 38.6 | 41.8 | 0.00 | 0.00 | 0.00 | 35 | 1010.2 |
| 20260503213104 | 16 | 224 | 41.8 | 43.5 | 0.00 | 0.00 | 0.00 | 35 | 1010.4 |
| 20260503212602 | 16 | 193 | 32.2 | 37.0 | 0.00 | 0.00 | 0.00 | 36 | 1010.5 |
| 20260503212059 | 16 | 242 | 35.4 | 38.6 | 0.00 | 0.00 | 0.00 | 34 | 1010.2 |
| 20260503211556 | 17 | 233 | 46.7 | 49.9 | 0.00 | 0.00 | 0.00 | 33 | 1010.4 |
| 20260503211052 | 16 | 227 | 41.8 | 48.3 | 0.00 | 0.00 | 0.00 | 34 | 1010.5 |
| 20260503210549 | 17 | 224 | 48.3 | 51.5 | 0.00 | 0.00 | 0.00 | 33 | 1010.3 |
| 20260503210044 | 16 | 218 | 38.6 | 40.2 | 0.00 | 0.00 | 0.00 | 33 | 1010.5 |
| 20260503205542 | 17 | 222 | 38.6 | 41.8 | 0.00 | 0.00 | 0.00 | 33 | 1010.6 |
| 20260503205038 | 16 | 209 | 45.1 | 54.7 | 0.00 | 0.00 | 0.00 | 34 | 1010.3 |
| 20260503204535 | 17 | 235 | 46.7 | 59.5 | 0.00 | 0.00 | 0.00 | 34 | 1010.4 |
| 20260503204032 | 17 | 211 | 49.9 | 53.1 | 0.00 | 0.00 | 0.00 | 34 | 1010.3 |
| 20260503203529 | 17 | 216 | 48.3 | 51.5 | 0.00 | 0.00 | 0.00 | 34 | 1010.6 |
| 20260503203026 | 17 | 216 | 41.8 | 49.9 | 0.00 | 0.00 | 0.00 | 35 | 1010.5 |
| 20260503202524 | 17 | 210 | 45.1 | 51.5 | 0.00 | 0.00 | 0.00 | 32 | 1010.7 |
| 20260503202022 | 17 | 225 | 38.6 | 41.8 | 0.00 | 0.00 | 0.00 | 33 | 1010.8 |
| 20260503201520 | 17 | 226 | 48.3 | 53.1 | 0.00 | 0.00 | 0.00 | 33 | 1010.9 |
| 20260503201017 | 17 | 215 | 35.4 | 41.8 | 0.00 | 0.00 | 0.00 | 35 | 1010.6 |
| 20260503200513 | 17 | 218 | 37.0 | 38.6 | 0.00 | 0.00 | 0.00 | 35 | 1011.1 |
| 20260503200010 | 16 | 232 | 30.6 | 35.4 | 0.00 | 0.00 | 0.00 | 36 | 1011.0 |
| 20260503195507 | 17 | 242 | 41.8 | 51.5 | 0.00 | 0.00 | 0.00 | 33 | 1011.1 |
| 20260503195003 | 17 | 221 | 40.2 | 41.8 | 0.00 | 0.00 | 0.00 | 35 | 1011.0 |
| 20260503194501 | 17 | 217 | 38.6 | 41.8 | 0.00 | 0.00 | 0.00 | 36 | 1011.2 |
| 20260503193955 | 17 | 219 | 43.5 | 48.3 | 0.00 | 0.00 | 0.00 | 32 | 1011.2 |
| 20260503193451 | 17 | 215 | 38.6 | 43.5 | 0.00 | 0.00 | 0.00 | 35 | 1011.1 |
| 20260503192947 | 17 | 210 | 38.6 | 40.2 | 0.00 | 0.00 | 0.00 | 36 | 1011.1 |
| 20260503192444 | 16 | 217 | 38.6 | 43.5 | 0.00 | 0.00 | 0.00 | 36 | 1011.3 |
| 20260503191939 | 17 | 220 | 41.8 | 46.7 | 0.00 | 0.00 | 0.00 | 36 | 1011.2 |
| 20260503191437 | 16 | 212 | 45.1 | 51.5 | 0.00 | 0.00 | 0.00 | 34 | 1011.5 |
| 20260503190933 | 17 | 211 | 41.8 | 46.7 | 0.00 | 0.00 | 0.00 | 37 | 1011.5 |
| 20260503190431 | 17 | 225 | 46.7 | 53.1 | 0.00 | 0.00 | 0.00 | 34 | 1011.4 |
| 20260503185927 | 17 | 223 | 40.2 | 48.3 | 0.00 | 0.00 | 0.00 | 33 | 1011.6 |
| 20260503185424 | 16 | 228 | 37.0 | 41.8 | 0.00 | 0.00 | 0.00 | 34 | 1011.8 |
| 20260503184923 | 17 | 245 | 43.5 | 49.9 | 0.00 | 0.00 | 0.00 | 34 | 1011.7 |
| 20260503184420 | 17 | 207 | 24.1 | 29.0 | 0.00 | 0.00 | 0.00 | 32 | 1011.7 |
| 20260503183916 | 17 | 253 | 38.6 | 49.9 | 0.00 | 0.00 | 0.00 | 32 | 1012.0 |
| 20260503183413 | 17 | 227 | 37.0 | 40.2 | 0.00 | 0.00 | 0.00 | 35 | 1012.1 |
| 20260503182910 | 17 | 218 | 40.2 | 41.8 | 0.00 | 0.00 | 0.00 | 35 | 1011.9 |
| 20260503182409 | 16 | 222 | 45.1 | 48.3 | 0.00 | 0.00 | 0.00 | 35 | 1011.8 |
| 20260503181906 | 16 | 232 | 41.8 | 46.7 | 0.00 | 0.00 | 0.00 | 33 | 1012.0 |
| 20260503181403 | 16 | 231 | 38.6 | 40.2 | 0.00 | 0.00 | 0.00 | 32 | 1012.4 |
| 20260503180859 | 16 | 223 | 38.6 | 41.8 | 0.00 | 0.00 | 0.00 | 35 | 1012.0 |
| 20260503180357 | 16 | 227 | 33.8 | 38.6 | 0.00 | 0.00 | 0.00 | 34 | 1012.1 |
| 20260503175853 | 16 | 209 | 38.6 | 43.5 | 0.00 | 0.00 | 0.00 | 35 | 1012.2 |
| 20260503175352 | 16 | 230 | 40.2 | 43.5 | 0.00 | 0.00 | 0.00 | 35 | 1012.5 |
| 20260503174847 | 16 | 235 | 38.6 | 41.8 | 0.00 | 0.00 | 0.00 | 35 | 1012.6 |
| 20260503174345 | 16 | 264 | 37.0 | 41.8 | 0.00 | 0.00 | 0.00 | 35 | 1012.7 |
| 20260503173840 | 16 | 230 | 38.6 | 43.5 | 0.00 | 0.00 | 0.00 | 38 | 1012.6 |
| 20260503173336 | 16 | 241 | 41.8 | 46.7 | 0.00 | 0.00 | 0.00 | 34 | 1012.6 |
| 20260503172833 | 16 | 224 | 32.2 | 37.0 | 0.00 | 0.00 | 0.00 | 37 | 1012.7 |
| 20260503172331 | 16 | 253 | 35.4 | 38.6 | 0.00 | 0.00 | 0.00 | 32 | 1012.9 |
| 20260503171826 | 16 | 231 | 30.6 | 35.4 | 0.00 | 0.00 | 0.00 | 38 | 1012.8 |
| 20260503171324 | 16 | 216 | 43.5 | 51.5 | 0.00 | 0.00 | 0.00 | 36 | 1013.1 |
| 20260503170821 | 16 | 228 | 35.4 | 38.6 | 0.00 | 0.00 | 0.00 | 38 | 1013.0 |
| 20260503170317 | 15 | 212 | 37.0 | 40.2 | 0.00 | 0.00 | 0.00 | 39 | 1013.0 |
| 20260503150710 | 12 | 237 | 29.0 | 32.2 | 0.00 | 0.00 | 0.00 | 48 | 1014.3 |
| 20260503150206 | 12 | 216 | 24.1 | 27.4 | 0.00 | 0.00 | 0.00 | 52 | 1014.5 |
| 20260503140125 | 10 | 235 | 35.4 | 40.2 | 0.00 | 0.00 | 0.00 | 56 | 1014.8 |
| 20260503131054 | 8 | 230 | 27.4 | 29.0 | 0.00 | 0.00 | 0.00 | 57 | 1014.6 |
| 20260503130551 | 8 | 232 | 27.4 | 29.0 | 0.00 | 0.00 | 0.00 | 59 | 1014.9 |
| 20260503110442 | 2 | 215 | 11.3 | 12.9 | 0.00 | 0.00 | 0.00 | 76 | 1015.1 |
| 20260503090333 | 1 | 216 | 9.7 | 9.7 | 0.00 | 0.00 | 0.00 | 79 | 1015.3 |
| 20260503081300 | 1 | 216 | 4.8 | 4.8 | 0.00 | 0.00 | 0.00 | 81 | 1015.4 |
| 20260503080756 | 1 | 219 | 3.2 | 3.2 | 0.00 | 0.00 | 0.00 | 81 | 1015.3 |
| 20260503080254 | 1 | 211 | 6.4 | 8.0 | 0.00 | 0.00 | 0.00 | 79 | 1015.3 |
| 20260503072730 | 1 | 235 | 3.2 | 3.2 | 0.00 | 0.00 | 0.00 | 81 | 1015.5 |
| 20260503072227 | 1 | 224 | 3.2 | 3.2 | 0.00 | 0.00 | 0.00 | 79 | 1015.4 |
| 20260503071724 | 1 | 225 | 4.8 | 4.8 | 0.00 | 0.00 | 0.00 | 79 | 1015.6 |
| 20260503071221 | 1 | 225 | 6.4 | 8.0 | 0.00 | 0.00 | 0.00 | 79 | 1015.3 |
| 20260503070717 | 2 | 232 | 8.0 | 8.0 | 0.00 | 0.00 | 0.00 | 79 | 1015.5 |
| 20260503070215 | 2 | 227 | 8.0 | 8.0 | 0.00 | 0.00 | 0.00 | 78 | 1015.6 |
| 20260503033006 | 5 | 218 | 8.0 | 9.7 | 0.00 | 0.10 | 0.10 | 70 | 1016.1 |
| 20260503032504 | 5 | 211 | 8.0 | 9.7 | 0.00 | 0.10 | 0.10 | 69 | 1016.1 |
| 20260503032002 | 5 | 217 | 8.0 | 9.7 | 0.00 | 0.10 | 0.10 | 70 | 1016.1 |
| 20260503031459 | 5 | 211 | 8.0 | 9.7 | 0.00 | 0.10 | 0.10 | 70 | 1016.1 |
| 20260503030956 | 5 | 202 | 8.0 | 9.7 | 0.00 | 0.10 | 0.10 | 71 | 1016.1 |
| 20260503030452 | 5 | 206 | 4.8 | 4.8 | 0.00 | 0.10 | 0.10 | 72 | 1016.0 |
| 20260503025949 | 6 | 206 | 6.4 | 8.0 | 0.00 | 0.10 | 0.10 | 70 | 1016.3 |
| 20260503025446 | 6 | 209 | 6.4 | 8.0 | 0.00 | 0.10 | 0.10 | 69 | 1016.2 |
| 20260503024944 | 6 | 202 | 4.8 | 4.8 | 0.00 | 0.10 | 0.10 | 69 | 1016.1 |
| 20260503024440 | 6 | 197 | 4.8 | 4.8 | 0.00 | 0.10 | 0.10 | 67 | 1016.0 |
| 20260503023937 | 6 | 197 | 4.8 | 4.8 | 0.00 | 0.10 | 0.10 | 68 | 1016.3 |
| 20260503023434 | 6 | 197 | 4.8 | 4.8 | 0.00 | 0.10 | 0.10 | 72 | 1016.2 |
| 20260503022931 | 6 | 203 | 4.8 | 4.8 | 0.00 | 0.10 | 0.10 | 71 | 1016.1 |
| 20260503022426 | 6 | 219 | 6.4 | 8.0 | 0.00 | 0.10 | 0.10 | 68 | 1016.2 |
| 20260503021922 | 6 | 210 | 4.8 | 4.8 | 0.00 | 0.10 | 0.10 | 70 | 1016.4 |
| 20260503021418 | 6 | 201 | 4.8 | 4.8 | 0.00 | 0.10 | 0.10 | 69 | 1016.2 |
| 20260503020916 | 6 | 188 | 4.8 | 4.8 | 0.00 | 0.10 | 0.10 | 68 | 1016.0 |
| 20260503020414 | 6 | 185 | 4.8 | 4.8 | 0.00 | 0.10 | 0.10 | 65 | 1016.2 |
| 20260503015910 | 6 | 186 | 4.8 | 4.8 | 0.00 | 0.10 | 0.10 | 62 | 1016.0 |
| 20260503015407 | 6 | 181 | 3.2 | 3.2 | 0.00 | 0.10 | 0.10 | 60 | 1015.9 |
| 20260503014903 | 6 | 187 | 3.2 | 3.2 | 0.00 | 0.10 | 0.10 | 67 | 1016.0 |
| 20260503014400 | 6 | 202 | 4.8 | 4.8 | 0.00 | 0.10 | 0.10 | 65 | 1016.0 |
| 20260503013858 | 6 | 197 | 4.8 | 4.8 | 0.00 | 0.10 | 0.10 | 67 | 1016.0 |
| 20260503013355 | 6 | 201 | 4.8 | 4.8 | 0.00 | 0.10 | 0.10 | 69 | 1015.9 |
| 20260503012852 | 6 | 208 | 3.2 | 3.2 | 0.00 | 0.10 | 0.10 | 70 | 1016.0 |
| 20260503012349 | 6 | 212 | 4.8 | 4.8 | 0.00 | 0.10 | 0.10 | 69 | 1016.1 |
| 20260503011846 | 6 | 198 | 4.8 | 4.8 | 0.00 | 0.10 | 0.10 | 66 | 1015.9 |
| 20260503011343 | 6 | 193 | 4.8 | 4.8 | 0.00 | 0.10 | 0.10 | 63 | 1016.0 |
| 20260503010839 | 6 | 207 | 4.8 | 4.8 | 0.00 | 0.10 | 0.10 | 64 | 1016.2 |
| 20260503010337 | 7 | 214 | 4.8 | 4.8 | 0.00 | 0.10 | 0.10 | 66 | 1015.8 |
| 20260503005833 | 6 | 216 | 4.8 | 4.8 | 0.00 | 0.10 | 0.10 | 66 | 1015.8 |
| 20260503005331 | 7 | 217 | 1.6 | 1.6 | 0.00 | 0.10 | 0.10 | 66 | 1015.9 |
| 20260503004827 | 7 | 215 | 1.6 | 1.6 | 0.00 | 0.10 | 0.10 | 62 | 1016.0 |
| 20260503004325 | 7 | 228 | 3.2 | 3.2 | 0.00 | 0.10 | 0.10 | 59 | 1015.8 |
| 20260503003822 | 7 | 236 | 3.2 | 3.2 | 0.00 | 0.10 | 0.10 | 51 | 1015.9 |
| 20260503003319 | 7 | 318 | 3.2 | 3.2 | 0.00 | 0.10 | 0.10 | 48 | 1015.8 |
| 20260503002816 | 7 | 240 | 3.2 | 3.2 | 0.00 | 0.10 | 0.10 | 48 | 1015.8 |
| 20260503002313 | 7 | 260 | 4.8 | 4.8 | 0.00 | 0.10 | 0.10 | 53 | 1015.7 |
| 20260503001809 | 8 | 240 | 4.8 | 4.8 | 0.00 | 0.10 | 0.10 | 54 | 1015.9 |
| 20260503001306 | 8 | 255 | 4.8 | 4.8 | 0.00 | 0.10 | 0.10 | 48 | 1015.6 |
| 20260503000803 | 8 | 301 | 1.6 | 1.6 | 0.00 | 0.10 | 0.10 | 49 | 1015.7 |
| 20260503000300 | 8 | 304 | 3.2 | 3.2 | 0.00 | 0.10 | 0.10 | 48 | 1015.9 |
| 20260502235757 | 8 | 298 | 1.6 | 1.6 | 0.00 | 0.10 | 0.10 | 50 | 1015.7 |
| 20260502235255 | 8 | 318 | 1.6 | 1.6 | 0.00 | 0.10 | 0.10 | 50 | 1015.7 |
| 20260502234751 | 8 | 321 | 3.2 | 3.2 | 0.00 | 0.10 | 0.10 | 48 | 1015.8 |
| 20260502234248 | 8 | 307 | 4.8 | 4.8 | 0.00 | 0.10 | 0.10 | 45 | 1015.7 |
| 20260502233744 | 8 | 310 | 4.8 | 4.8 | 0.00 | 0.10 | 0.10 | 45 | 1015.7 |
| 20260502233241 | 8 | 302 | 6.4 | 9.7 | 0.00 | 0.10 | 0.10 | 45 | 1015.9 |